Airfield :
LOGIN :

Register | Disclaimer

   EN    FR    IT 

 










Legend :    VFR   Marginal VFR   IFR   Intensive IFR   Very Intensive IFR
Visi :
Ceiling :
>= 8 km
>= 3000ft
5 to 8 km
1000 to 3000 ft
1500m to 5 km
500 to 1000 ft
800 to 1500m
200 to 500 ft
< 800m
< 200 ft
Symbols :   Thunderstorms  Fog  Heavy snow  Heavy precipitations  Wind > 20 kt
SIGMETs :     Misc.  Thunderstorms  Icing  Turbulence  Mountain Waves  Volcanic Ashes







- Airport Elevation : 726 ft
- IATA code : DIJ
- Download approach charts


LFSD - Dijon

CURRENT METAR :
  • 221800Z AUTO 36005KT 9999 FEW016 25/13 Q1014

EXPIRED METARs :
  • 221730Z AUTO 01007KT CAVOK 26/12 Q1014
  • 221700Z AUTO 01007KT CAVOK 27/13 Q1014
  • 221630Z AUTO 36008KT CAVOK 26/12 Q1014
  • 221600Z AUTO 01008KT CAVOK 26/13 Q1014
  • 221530Z AUTO 01009KT 350V050 CAVOK 27/12 Q1014

Expired Forecast.
No reported NOTAMs for that airfield.



MET'MAP, your aeronautical weather chart ! - Copyright ORBIFLY December 2007 - Disclaimer

ORBIFLY MET'MAP TEAM :

Programming & Development : Alexandra Zaïnal
Concept & Development : Baudouin d'Aumeries
Co-Development & Prog : Marc-Olivier Méhu
Technical & hardware support : Manuel Goepfert

Contact : metmap@orbifly.com




SOURCES & CREDITS :

   NOAA